Погода в Славгороде

Погода в Славгороде : погода сейчас, прогноз погоды и архив. Всё, что Вы хотите узнать о погоде в Славгороде!

Хотите узнать прогноз погоды в Славгороде? Тогда Вам сюда: Погода в Славгороде

Поиск расширенной информации на нашем сайте:

Другие новости

Новости СМИ2

Главная страница сайта

Новости сайта

03.07.2017

Напоминаем, что на нашем специализированном сайте Метеоцентр.Азия вы можете получить высокодетализированные автоматические прогнозы погоды по пунктам России, СНГ и мира в авиационном формате (включающие направление и скорость ветра, видимость, явления погоды, количество и форму облачности, нижнюю и верхнюю границу облачности).

Рекомендуем: гаджет погоды

Погода в Славгороде - сегодня

Время (UTC), дата Ветер
(°,м/с) 
Видим.   Явления Облачность Т
(°С)
Тd
(°С)
f(%) Тe
(°С)
Pmin
(гПа)
dP
(гПа)
Po
(мм)
O2
(г/м3)
Тmin Tmax R s Состояние
почвы
03 12.12.17 130 (ЮВ) 6000 м  дымка  9/9 600 м 
[Sc]
-1.2 -1.8 96 -3  1008.1  -0.7  740  300         
06 12.12.17 140 (ЮВ) 4600 м  в посл. час дождь [диам. гололёда 1 мм]  9/9 600 м 
[Sc]
-0.2 -0.6 97 -2  1007.3  -0.7  740  298  -1.3    0.0  равномерный
мокрый или
старый снег
100% 
09 12.12.17 150 (ЮВ) 7000 м  дымка  9/9 600 м 
[Sc]
+0.6 -0.1 95 1007.1  -0.1  740  297           
12 12.12.17 150 (ЮВ) 9000 м  дымка  9/9 600 м 
[Sc]
+1.1 +0.2 94 1005.8  -1.2  739  296           
15 12.12.17 160 (Ю) 9000 м  дымка  9/9 600 м 
[Sc]
+1.1 +0.4 95 1006.8  0.9  739  297           
18 12.12.17 180 (Ю) 8000 м  дымка  9/9 600 м 
[Sc]
+1.5 +0.8 95 1006.9  0.2  740  296    +1.5     
21 12.12.17 210 (ЮЗ) 9000 м  дымка  9/9 600 м 
[Sc]
+2.6 +1.4 92 +1  1008  1.1  740  295           
00 13.12.17 220 (ЮЗ) 17000 м    3/3 600 м 
[Sc]
+3.4 +2.4 93 +1  1008.4  0.5  741  294           
03 13.12.17 210 (ЮЗ) 17000 м    9/9 600 м 
[Sc]
+3 +2.1 94 +2  1009.9  1.4  742  295         
06 13.12.17 260 (З) 20000 м    9/9 600 м 
[Sc]
+2.9 +1.3 89 +2  1012  2.1  743  296  +1.5      равномерный
мокрый или
старый снег
100% 
09 13.12.17 220 (ЮЗ) 20000 м    9/9 600 м 
[Sc]
+2.8 -0.8 77 +1  1013.9  1.8  745  297           
12 13.12.17 260 (З) 20000 м    9/9 600 м 
[Sc]
+2.2 -1.2 78 +1  1013.7  -0.2  745  298           
15 13.12.17 200 (Ю) 17000 м    9/9 600 м 
[Sc]
+1.2 -1 85 +2  1014.2  0.4  745  299           
18 13.12.17 220 (ЮЗ) 15000 м    9/9 600 м 
[Sc]
+0.1 -1.5 89 +1  1014.7  0.4  745  300    +3.1     
21 13.12.17 тихо ()   13000 м    9/9 600 м 
[Sc]
-1.4 -2 96 -1  1014.1  -0.7  745  302           
00 14.12.17 тихо ()   4900 м  дымка  9/9 600 м 
[Sc]
-1.6 -1.9 98 -2  1013.2  -0.9  744  302           
03 14.12.17 040 (СВ) 0900 м  туман  ?/?  
-2.6 -2.6 100 -2  1011.4  -1.9  743  302         
06 14.12.17 110 (В) 0400 м  переохл. туман [диам. гололёда 1 мм]  ?/?  
-2.9 -2.9 100 -2  1009.9  -1.5  741  302  -3.1      равномерный
мокрый или
старый снег
100% 
09 14.12.17 120 (ЮВ) 4400 м  дымка{туман} [диам. гололёда 1 мм]  9/9 600 м 
[Sc]
-1.9 -2.3 97 -1  1008.5  -1.2  740  301           
12 14.12.17 140 (ЮВ) 9000 м  дымка{туман}  9/9 600 м 
[Sc]
-0.2 -0.9 95 -1  1006  -2.4  739  298           
15 14.12.17 150 (ЮВ) 4100 м  дымка  10/10 300 м 
[St]
-0.3 -0.7 97 1005.6  -0.4  738  298           
18 14.12.17 190 (Ю) 5{10}  9000 м  дымка  10/10 300 м 
[St]
+0.1 -0.9 93 -3  1004.6  -0.9  738  297    +0.4     
21 14.12.17 170 (Ю) 4{10}  18000 м    9/9 600 м 
[Sc]
+0.3 -0.8 92 -2  1003.8  -0.8  737  297           
00 15.12.17 180 (Ю) 4{10}  7000 м  дымка  9/9 600 м 
[Sc]
+0.3 -0.3 96 -2  1004  0.2  737  297           
06 15.12.17 200 (Ю) 4{10}  9000 м  дымка  9/9 600 м 
[Sc]
+1.1 -0.2 91 -1  1006.3  2.1  739  297  +0      равномерный
мокрый или
старый снег
100% 
Время (UTC), дата Ветер
(°,м/с) 
Видим.   Явления Облачность Т
(°С)
Тd
(°С)
f(%) Тe
(°С)
Pmin
(гПа)
dP
(гПа)
Po
(мм)
O2
(г/м3)
Тmin Tmax R s Состояние
почвы

Для получения пояснительной информации подведите курсор к названию столбца.

ПОГОДА в Славгороде - архив

Всё, что Вы хотите узнать о погоде в Славгороде - удобно и подробно!

Выберите нужную дату (начиная с 1 января 2015* года) и нажмите кнопку "Найти".
Будут отображены архивные сводки погоды по пункту Славгород, начиная с указанной даты.


Отображать данные в формате CSV (для использования в таблицах Excel)


Внимание! Наш архив погоды предназначен исключительно для личного некоммерческого использования в познавательных целях. Если Вам необходимы официальные справки о состоянии погоды (для производственных, юридических, коммерческих и т.п. целей), обращайтесь в органы Росгидромета.

*Примечание: данная дата относится к архиву по метеостанциям СССР (Россия, СНГ, Балтия).
Архив по метеостанциям Зарубежной Европы и Азии (кроме Китая) хранится 10 дней, по другим регионам земного шара (Китай, Африка, Америка, Австралия, Океания) - 1 день.

Славгород - район местоположения метеостанции


Название, широта, долгота, высота метеостанции:
Славгород 53.4°ш. 31°д. 170 м над ур. моря [Беларусь]

Дополнительная информация

В oтличие oт бoльшинства пoгoдных сайтoв мы публикуем пoдрoбную метеoинфoрмацию в детальнoм прoфессиoнальнoм фoрмате.

Характеристики температуры и влажнoсти вoздуха измеряются на высoте 2 м в тени вдали oт зданий и деревьев.
Скoрoсть ветра измеряется на высoте 10 м (на урoвне рoста челoвека скoрoсть ветра ниже в 1.5-2 раза). Если метеoстанция нахoдится в гoрoде или в лесу, тo скoрoсть ветра занижена на 2-4 м/с пo сравнению с oткрытым местoм. Скoрoсть ветра над акватoриями крупных рек и oзёр, а также на вершинах хoлмoв на 2-5 м/с выше, чем в oбычных услoвиях.
Атмoсфернoе давление в разных тoчках местнoсти мoжет значительнo oтличаться oт давления на метеoстанции, в зависимoсти oт услoвий рельефа (при пoдъёме на 10 м давление пoнижается примернo на 1 мм рт.ст.).